Regional Weather Roundup
Issued by NWS

Home | Current Version | Previous Version | Graphics & Text | Print | Product List | Glossary On
Versions: 1 2 3 4 5 6 7 8 9 10 11 12 13 14 15 16 17 18 19 20 21 22 23 24 25 26 27 28 29 30 31 32 33 34 35 36 37 38 39 40 41 42 43 44 45 46 47 48 49 50
000
ASUS43 KLMK 180710
RWRKY
KENTUCKY REGIONAL WEATHER ROUNDUP
NATIONAL WEATHER SERVICE LOUISVILLE KY
300 AM EDT FRI AUG 18 2017

NOTE "FAIR" INDICATES FEW OR NO CLOUDS BELOW 12,000 FEET
WITH NO SIGNIFICANT WEATHER AND/OR OBSTRUCTIONS TO VISIBILITY.

KYZ001>023-026-027-061>063-070>075-180800-
WESTERN AND SOUTH CENTRAL KENTUCKY

CITY           SKY/WX    TMP DP  RH WIND       PRES   REMARKS
PADUCAH        CLEAR     73  70  90 W6        29.91S
HENDERSON      CLEAR     73  70  90 W5        29.89
OWENSBORO      CLEAR     73  71  93 W8        29.89R
HOPKINSVILLE   MOCLDY    76  75  99 SW8       29.91F
BOWLING GREEN  CLEAR     76  76 100 W5        29.90F
GLASGOW        CLOUDY    75  75 100 W7        29.91S
$$

KYZ024-025-028>034-038-045-046-053-180800-
NORTH CENTRAL KENTUCKY

CITY           SKY/WX    TMP DP  RH WIND       PRES   REMARKS
LOUISVILLE/SDF MOCLDY    75  73  93 W7        29.86S
LOUISVILLE/LOU MOCLDY    75  75 100 SW6       29.87S
FORT KNOX      PTCLDY    74  73  98 SW6       29.87S
$$

KYZ035>037-039>044-047>052-055>060-089>105-180800-
NORTHEAST KENTUCKY

CITY           SKY/WX    TMP DP  RH WIND       PRES   REMARKS
LEXINGTON      CLOUDY    73  71  93 SW7       29.89F
COVINGTON      CLOUDY    74  74 100 SW7       29.85F
FRANKFORT      CLOUDY    74  71  91 SW6       29.87S
$$

KYZ054-064>069-076>088-106>120-180800-
SOUTHEAST KENTUCKY

CITY           SKY/WX    TMP DP  RH WIND       PRES   REMARKS
JACKSON        PTCLDY    75  70  84 CALM      29.92F
LONDON         CLOUDY    76  69  79 SW6       29.93F
SOMERSET       CLOUDY    72  72 100 SW7G16    29.94R
MIDDLESBORO    CLEAR     71  71 100 CALM      29.96F
MONTICELLO     LGT RAIN  73  72  96 W16       29.95S FOG
$$





USA.gov is the U.S. government's official web portal to all federal, state and local government web resources and services.